,,PA_Meas_PMT16A,,PR_Meas_QMR101_102,,RH_Meas_QMH101,,SR_Meas_QMS101,,TA_Meas_QMH101,,GenWind,,GenWind,
time,status,PA,status,PR,status,RH,status,SR,status,TA,status,DirAvg,status,SpdAvg,
2011-08-25, 00:00:05,VALID,917.65,VALID,0,VALID,96.5963,VALID,0,VALID,20.2879,VALID,343,VALID,0.523828,
2011-08-25, 00:01:05,VALID,917.609,VALID,0,VALID,96.5734,VALID,0,VALID,20.2473,VALID,343,VALID,0.45625,
2011-08-25, 00:02:05,VALID,917.574,VALID,0,VALID,96.5353,VALID,0,VALID,20.2473,VALID,343,VALID,0.598828,
2011-08-25, 00:03:05,VALID,917.57,VALID,0,VALID,96.5429,VALID,0,VALID,20.2278,VALID,343,VALID,0.340625,
2011-08-25, 00:04:05,VALID,917.559,VALID,0,VALID,96.5353,VALID,0,VALID,20.2293,VALID,343,VALID,0.581641,
2011-08-25, 00:05:05,VALID,917.565,VALID,0,VALID,96.5353,VALID,0,VALID,20.2489,VALID,343,VALID,0.550781,
2011-08-25, 00:06:05,VALID,917.556,VALID,0,VALID,96.5353,VALID,0,VALID,20.2278,VALID,343,VALID,0.566797,
2011-08-25, 00:07:05,VALID,917.514,VALID,0,VALID,96.5506,VALID,0,VALID,20.2293,VALID,343,VALID,0.535937,
2011-08-25, 00:08:05,VALID,917.522,VALID,0,VALID,96.5353,VALID,0,VALID,20.1888,VALID,343,VALID,0.592969,
2011-08-25, 00:09:05,VALID,917.509,VALID,0,VALID,96.5201,VALID,0,VALID,20.2098,VALID,343,VALID,0.628125,
2011-08-25, 00:10:05,VALID,917.455,VALID,0,VALID,96.5201,VALID,0,VALID,20.2098,VALID,343,VALID,0.524609,
2011-08-25, 00:11:05,VALID,917.459,VALID,0,VALID,96.5201,VALID,0,VALID,20.1693,VALID,343,VALID,0.450781,
2011-08-25, 00:12:05,VALID,917.432,VALID,0,VALID,96.5277,VALID,0,VALID,20.1498,VALID,343,VALID,0.536328,
2011-08-25, 00:13:05,VALID,917.435,VALID,0,VALID,96.5353,VALID,0,VALID,20.1708,VALID,343,VALID,0.357812,
2011-08-25, 00:14:05,VALID,917.424,VALID,0,VALID,96.5506,VALID,0,VALID,20.1513,VALID,343,VALID,0.3125,
2011-08-25, 00:15:05,VALID,917.435,VALID,0,VALID,96.5658,VALID,0,VALID,20.1708,VALID,343,VALID,0.244922,
2011-08-25, 00:16:05,VALID,917.399,VALID,0,VALID,96.5582,VALID,0,VALID,20.1303,VALID,343,VALID,0.308984,
2011-08-25, 00:17:05,VALID,917.424,VALID,0,VALID,96.5353,VALID,0,VALID,20.1303,VALID,272,VALID,0.524219,
2011-08-25, 00:18:05,VALID,917.439,VALID,0,VALID,96.5582,VALID,0,VALID,20.1318,VALID,272,VALID,0.413672,
2011-08-25, 00:19:05,VALID,917.409,VALID,0,VALID,96.5582,VALID,0,VALID,20.1318,VALID,272,VALID,0.35,
2011-08-25, 00:20:05,VALID,917.418,VALID,0,VALID,96.5887,VALID,0,VALID,20.0913,VALID,272,VALID,0.336719,
2011-08-25, 00:21:05,VALID,917.382,VALID,0,VALID,96.6268,VALID,0,VALID,20.1123,VALID,272,VALID,0.356641,
2011-08-25, 00:22:05,VALID,917.419,VALID,0,VALID,96.6115,VALID,0,VALID,20.1334,VALID,272,VALID,0.470313,
2011-08-25, 00:23:05,VALID,917.399,VALID,0,VALID,96.6344,VALID,0,VALID,20.1318,VALID,272,VALID,0.233203,
2011-08-25, 00:24:05,VALID,917.382,VALID,0,VALID,96.6344,VALID,0,VALID,20.1318,VALID,272,VALID,0.589063,
2011-08-25, 00:25:05,VALID,917.37,VALID,0,VALID,96.6725,VALID,0,VALID,20.1513,VALID,272,VALID,0.270312,
2011-08-25, 00:26:05,VALID,917.37,VALID,0,VALID,96.6344,VALID,0,VALID,20.1513,VALID,272,VALID,0,
2011-08-25, 00:27:05,VALID,917.329,VALID,0,VALID,96.6039,VALID,0,VALID,20.1724,VALID,272,VALID,0.499219,
2011-08-25, 00:28:05,VALID,917.31,VALID,0,VALID,96.5277,VALID,0,VALID,20.1139,VALID,272,VALID,0.548828,
2011-08-25, 00:29:05,VALID,917.289,VALID,0,VALID,96.5887,VALID,0,VALID,20.0718,VALID,272,VALID,0.571875,
2011-08-25, 00:30:05,VALID,917.292,VALID,0,VALID,96.6649,VALID,0,VALID,20.0913,VALID,272,VALID,0.208203,
2011-08-25, 00:31:05,VALID,917.264,VALID,0,VALID,96.7107,VALID,0,VALID,20.1513,VALID,272,VALID,0.413281,
2011-08-25, 00:32:05,VALID,917.244,VALID,0,VALID,96.6954,VALID,0,VALID,20.1318,VALID,272,VALID,0.536719,
2011-08-25, 00:33:05,VALID,917.256,VALID,0,VALID,96.703,VALID,0,VALID,20.1498,VALID,273,VALID,0.483594,
2011-08-25, 00:34:05,VALID,917.25,VALID,0,VALID,96.7107,VALID,0,VALID,20.1708,VALID,273,VALID,0.260938,
2011-08-25, 00:35:05,VALID,917.253,VALID,0,VALID,96.7259,VALID,0,VALID,20.1708,VALID,272,VALID,0,
2011-08-25, 00:36:05,VALID,917.247,VALID,0,VALID,96.7488,VALID,0,VALID,20.1903,VALID,272,VALID,0.152734,
2011-08-25, 00:37:05,VALID,917.254,VALID,0,VALID,96.7488,VALID,0,VALID,20.1888,VALID,272,VALID,0.0535156,
2011-08-25, 00:38:05,VALID,917.266,VALID,0,VALID,96.7488,VALID,0,VALID,20.1903,VALID,272,VALID,0.233594,
2011-08-25, 00:39:05,VALID,917.264,VALID,0,VALID,96.7411,VALID,0,VALID,20.1903,VALID,272,VALID,0.452344,
2011-08-25, 00:40:05,VALID,917.232,VALID,0,VALID,96.7259,VALID,0,VALID,20.1903,VALID,272,VALID,0.530469,
2011-08-25, 00:41:05,VALID,917.258,VALID,0,VALID,96.7107,VALID,0,VALID,20.1903,VALID,273,VALID,0.209766,
2011-08-25, 00:42:04,VALID,917.231,VALID,0,VALID,96.7183,VALID,0,VALID,20.1903,VALID,272,VALID,0.405078,
2011-08-25, 00:43:04,VALID,917.201,VALID,0,VALID,96.7411,VALID,0,VALID,20.1903,VALID,272,VALID,0.477734,
2011-08-25, 00:44:04,VALID,917.197,VALID,0,VALID,96.7488,VALID,0,VALID,20.1708,VALID,272,VALID,0.403125,
2011-08-25, 00:45:04,VALID,917.194,VALID,0,VALID,96.7869,VALID,0,VALID,20.1498,VALID,272,VALID,0.659766,
2011-08-25, 00:46:04,VALID,917.178,VALID,0,VALID,96.8021,VALID,0,VALID,20.1708,VALID,272,VALID,0.665625,
2011-08-25, 00:47:04,VALID,917.193,VALID,0,VALID,96.7716,VALID,0,VALID,20.1318,VALID,272,VALID,0.783984,
2011-08-25, 00:48:04,VALID,917.196,VALID,0,VALID,96.7564,VALID,0,VALID,20.1318,VALID,272,VALID,0.988281,
2011-08-25, 00:49:04,VALID,917.234,VALID,0,VALID,96.7411,VALID,0,VALID,20.1123,VALID,272,VALID,0.912109,
2011-08-25, 00:50:04,VALID,917.243,VALID,0,VALID,96.7793,VALID,0,VALID,20.0928,VALID,272,VALID,0.679297,
2011-08-25, 00:51:04,VALID,917.223,VALID,0,VALID,96.7945,VALID,0,VALID,20.0928,VALID,273,VALID,0.800781,
2011-08-25, 00:52:04,VALID,917.215,VALID,0,VALID,96.7793,VALID,0,VALID,20.0928,VALID,272,VALID,0.480469,
2011-08-25, 00:53:04,VALID,917.212,VALID,0,VALID,96.8098,VALID,0,VALID,20.0928,VALID,272,VALID,0.199609,
2011-08-25, 00:54:04,VALID,917.237,VALID,0,VALID,96.8403,VALID,0,VALID,20.0928,VALID,272,VALID,0.1125,
2011-08-25, 00:55:04,VALID,917.185,VALID,0,VALID,96.8403,VALID,0,VALID,20.1123,VALID,272,VALID,0.307422,
2011-08-25, 00:56:04,VALID,917.189,VALID,0,VALID,96.8403,VALID,0,VALID,20.1123,VALID,272,VALID,0,
2011-08-25, 00:57:04,VALID,917.161,VALID,0,VALID,96.8707,VALID,0,VALID,20.1123,VALID,272,VALID,0,
2011-08-25, 00:58:04,VALID,917.177,VALID,0,VALID,96.8707,VALID,0,VALID,20.1318,VALID,272,VALID,0,
2011-08-25, 00:59:04,VALID,917.169,VALID,0,VALID,96.8707,VALID,0,VALID,20.1318,VALID,272,VALID,0.137891,
2011-08-25, 01:00:04,VALID,917.148,VALID,0,VALID,96.8936,VALID,0,VALID,20.1513,VALID,272,VALID,0.269531,
2011-08-25, 01:01:04,VALID,917.146,VALID,0,VALID,96.9241,VALID,0,VALID,20.1498,VALID,272,VALID,0.0488281,
2011-08-25, 01:02:04,VALID,917.151,VALID,0,VALID,96.886,VALID,0,VALID,20.1498,VALID,272,VALID,0.319141,
2011-08-25, 01:03:04,VALID,917.141,VALID,0,VALID,96.8479,VALID,0,VALID,20.1513,VALID,272,VALID,0.559375,
2011-08-25, 01:04:04,VALID,917.129,VALID,0,VALID,96.8174,VALID,0,VALID,20.1123,VALID,272,VALID,0.573438,
2011-08-25, 01:05:04,VALID,917.114,VALID,0,VALID,96.8326,VALID,0,VALID,20.0508,VALID,272,VALID,0.546484,
2011-08-25, 01:06:04,VALID,917.118,VALID,0,VALID,96.8707,VALID,0,VALID,20.0718,VALID,272,VALID,0.619141,
2011-08-25, 01:07:04,VALID,917.084,VALID,0,VALID,96.8936,VALID,0,VALID,20.0928,VALID,321,VALID,0.762109,
2011-08-25, 01:08:04,VALID,917.082,VALID,0,VALID,96.9089,VALID,0,VALID,20.0928,VALID,352,VALID,0.474609,
2011-08-25, 01:09:04,VALID,917.103,VALID,0,VALID,96.9317,VALID,0,VALID,20.1123,VALID,352,VALID,0.429297,
2011-08-25, 01:10:04,VALID,917.094,VALID,0,VALID,96.9546,VALID,0,VALID,20.0913,VALID,352,VALID,0.116406,
2011-08-25, 01:11:04,VALID,917.117,VALID,0,VALID,96.9698,VALID,0,VALID,20.1334,VALID,352,VALID,0.325781,
2011-08-25, 01:12:04,VALID,917.112,VALID,0,VALID,96.9927,VALID,0,VALID,20.1318,VALID,352,VALID,0.317187,
2011-08-25, 01:13:04,VALID,917.08,VALID,0,VALID,96.9775,VALID,0,VALID,20.1513,VALID,352,VALID,0.269922,
2011-08-25, 01:14:04,VALID,917.078,VALID,0,VALID,96.9775,VALID,0,VALID,20.1303,VALID,352,VALID,0.542969,
2011-08-25, 01:15:04,VALID,917.076,VALID,0,VALID,96.9775,VALID,0,VALID,20.2114,VALID,352,VALID,0.876953,
2011-08-25, 01:16:04,VALID,917.079,VALID,0,VALID,96.9546,VALID,0,VALID,20.1303,VALID,352,VALID,1.08984,
2011-08-25, 01:17:04,VALID,917.079,VALID,0,VALID,96.9775,VALID,0,VALID,20.1708,VALID,352,VALID,1.11797,
2011-08-25, 01:18:04,VALID,917.119,VALID,0,VALID,96.9927,VALID,0,VALID,20.1708,VALID,25,VALID,1.20664,
2011-08-25, 01:19:04,VALID,917.128,VALID,0,VALID,96.9851,VALID,0,VALID,20.1919,VALID,25,VALID,1.24023,
2011-08-25, 01:20:04,VALID,917.109,VALID,0,VALID,96.9851,VALID,0,VALID,20.1498,VALID,25,VALID,1.41484,
2011-08-25, 01:21:04,VALID,917.136,VALID,0,VALID,96.9775,VALID,0,VALID,20.1708,VALID,25,VALID,1.26328,
2011-08-25, 01:22:04,VALID,917.161,VALID,0,VALID,96.9775,VALID,0,VALID,20.1498,VALID,25,VALID,1.05469,
2011-08-25, 01:23:04,VALID,917.124,VALID,0,VALID,96.947,VALID,0,VALID,20.1513,VALID,25,VALID,0.666406,
2011-08-25, 01:24:04,VALID,917.115,VALID,0,VALID,96.9394,VALID,0,VALID,20.1708,VALID,25,VALID,1.03281,
2011-08-25, 01:25:04,VALID,917.132,VALID,0,VALID,96.947,VALID,0,VALID,20.1513,VALID,25,VALID,1.10352,
2011-08-25, 01:26:04,VALID,917.102,VALID,0,VALID,96.947,VALID,0,VALID,20.1513,VALID,25,VALID,1.17969,
2011-08-25, 01:27:04,VALID,917.077,VALID,0,VALID,96.9775,VALID,0,VALID,20.1513,VALID,25,VALID,0.928906,
2011-08-25, 01:28:04,VALID,917.086,VALID,0,VALID,96.9698,VALID,0,VALID,20.1513,VALID,25,VALID,1.20742,
2011-08-25, 01:29:04,VALID,917.091,VALID,0,VALID,96.9775,VALID,0,VALID,20.1903,VALID,25,VALID,0.526172,
2011-08-25, 01:30:04,VALID,917.091,VALID,0,VALID,96.9622,VALID,0,VALID,20.1903,VALID,354,VALID,0.569141,
2011-08-25, 01:31:04,VALID,917.063,VALID,0,VALID,96.9622,VALID,0,VALID,20.1693,VALID,354,VALID,0.426172,
2011-08-25, 01:32:04,VALID,917.08,VALID,0,VALID,96.9241,VALID,0,VALID,20.2098,VALID,354,VALID,0.471484,
2011-08-25, 01:33:04,VALID,917.075,VALID,0,VALID,96.9241,VALID,0,VALID,20.1693,VALID,354,VALID,0.387891,
2011-08-25, 01:34:04,VALID,917.043,VALID,0,VALID,96.9012,VALID,0,VALID,20.1693,VALID,354,VALID,0.598828,
2011-08-25, 01:35:04,VALID,917.04,VALID,0,VALID,96.9165,VALID,0,VALID,20.1693,VALID,354,VALID,0.349219,
2011-08-25, 01:36:04,VALID,916.997,VALID,0,VALID,96.9089,VALID,0,VALID,20.1903,VALID,354,VALID,0.594141,
2011-08-25, 01:37:04,VALID,916.989,VALID,0,VALID,96.947,VALID,0,VALID,20.1903,VALID,354,VALID,0.368359,
2011-08-25, 01:38:04,VALID,916.991,VALID,0,VALID,96.9089,VALID,0,VALID,20.1903,VALID,354,VALID,0.71875,
2011-08-25, 01:39:04,VALID,916.973,VALID,0,VALID,96.8936,VALID,0,VALID,20.1483,VALID,354,VALID,0.208984,
2011-08-25, 01:40:04,VALID,916.948,VALID,0,VALID,96.9317,VALID,0,VALID,20.1873,VALID,354,VALID,0.344531,
2011-08-25, 01:41:04,VALID,916.966,VALID,0,VALID,96.9317,VALID,0,VALID,20.2668,VALID,354,VALID,0.00195313,
2011-08-25, 01:42:04,VALID,916.922,VALID,0,VALID,96.9012,VALID,0,VALID,20.2489,VALID,354,VALID,0.0636719,
2011-08-25, 01:43:04,VALID,916.953,VALID,0,VALID,96.9012,VALID,0,VALID,20.2473,VALID,354,VALID,0.312891,
2011-08-25, 01:44:04,VALID,916.935,VALID,0,VALID,96.9012,VALID,0,VALID,20.2668,VALID,354,VALID,0.229687,
2011-08-25, 01:45:04,VALID,916.938,VALID,0,VALID,96.8784,VALID,0,VALID,20.2879,VALID,354,VALID,0,
2011-08-25, 01:46:04,VALID,916.926,VALID,0,VALID,96.8784,VALID,0,VALID,20.2668,VALID,354,VALID,0,
2011-08-25, 01:47:04,VALID,916.926,VALID,0,VALID,96.886,VALID,0,VALID,20.2458,VALID,354,VALID,0,
2011-08-25, 01:48:04,VALID,916.913,VALID,0,VALID,96.9089,VALID,0,VALID,20.3074,VALID,354,VALID,0,
2011-08-25, 01:49:04,VALID,916.883,VALID,0,VALID,96.8479,VALID,0,VALID,20.2668,VALID,354,VALID,0.292188,
2011-08-25, 01:50:04,VALID,916.897,VALID,0,VALID,96.8403,VALID,0,VALID,20.2879,VALID,354,VALID,0.195703,
2011-08-25, 01:51:04,VALID,916.87,VALID,0,VALID,96.825,VALID,0,VALID,20.2668,VALID,354,VALID,0.185156,
2011-08-25, 01:52:04,VALID,916.853,VALID,0,VALID,96.7945,VALID,0,VALID,20.2473,VALID,354,VALID,0.122656,
2011-08-25, 01:53:04,VALID,916.846,VALID,0,VALID,96.8098,VALID,0,VALID,20.2473,VALID,354,VALID,0.100781,
2011-08-25, 01:54:04,VALID,916.89,VALID,0,VALID,96.8403,VALID,0,VALID,20.2684,VALID,354,VALID,0,
2011-08-25, 01:55:04,VALID,916.862,VALID,0,VALID,96.8326,VALID,0,VALID,20.2863,VALID,354,VALID,0,
2011-08-25, 01:56:04,VALID,916.847,VALID,0,VALID,96.8098,VALID,0,VALID,20.3058,VALID,354,VALID,0.246484,
2011-08-25, 01:57:04,VALID,916.834,VALID,0,VALID,96.8021,VALID,0,VALID,20.3253,VALID,354,VALID,0.101953,
2011-08-25, 01:58:04,VALID,916.846,VALID,0,VALID,96.7945,VALID,0,VALID,20.3074,VALID,354,VALID,0.208594,
2011-08-25, 01:59:04,VALID,916.837,VALID,0,VALID,96.8021,VALID,0,VALID,20.3253,VALID,354,VALID,0,
2011-08-25, 02:00:04,VALID,916.788,VALID,0,VALID,96.7716,VALID,0,VALID,20.3269,VALID,354,VALID,0,
2011-08-25, 02:01:04,VALID,916.812,VALID,0,VALID,96.7793,VALID,0,VALID,20.3464,VALID,354,VALID,0,
2011-08-25, 02:02:04,VALID,916.81,VALID,0,VALID,96.7945,VALID,0,VALID,20.3659,VALID,354,VALID,0,
2011-08-25, 02:03:04,VALID,916.806,VALID,0,VALID,96.7716,VALID,0,VALID,20.3464,VALID,354,VALID,0,
2011-08-25, 02:04:04,VALID,916.792,VALID,0,VALID,96.7411,VALID,0,VALID,20.3464,VALID,354,VALID,0.122266,
2011-08-25, 02:05:04,VALID,916.792,VALID,0,VALID,96.7793,VALID,0,VALID,20.3854,VALID,354,VALID,0,
2011-08-25, 02:06:04,VALID,916.787,VALID,0,VALID,96.7335,VALID,0,VALID,20.3854,VALID,354,VALID,0,
2011-08-25, 02:07:04,VALID,916.798,VALID,0,VALID,96.7107,VALID,0,VALID,20.3448,VALID,354,VALID,0.122266,
2011-08-25, 02:08:04,VALID,916.784,VALID,0,VALID,96.6802,VALID,0,VALID,20.3448,VALID,354,VALID,0.232031,
2011-08-25, 02:09:04,VALID,916.764,VALID,0,VALID,96.6649,VALID,0,VALID,20.3058,VALID,354,VALID,0.00195313,
2011-08-25, 02:10:04,VALID,916.764,VALID,0,VALID,96.6649,VALID,0,VALID,20.3058,VALID,354,VALID,0,
2011-08-25, 02:11:04,VALID,916.734,VALID,0,VALID,96.6725,VALID,0,VALID,20.2863,VALID,354,VALID,0,
2011-08-25, 02:12:04,VALID,916.72,VALID,0,VALID,96.6802,VALID,0,VALID,20.2863,VALID,354,VALID,0,
2011-08-25, 02:13:04,VALID,916.724,VALID,0,VALID,96.6878,VALID,0,VALID,20.2863,VALID,354,VALID,0,
2011-08-25, 02:14:04,VALID,916.697,VALID,0,VALID,96.7411,VALID,0,VALID,20.3253,VALID,354,VALID,0,
2011-08-25, 02:15:04,VALID,916.667,VALID,0,VALID,96.764,VALID,0.107441,VALID,20.3643,VALID,354,VALID,0,
2011-08-25, 02:16:04,VALID,916.656,VALID,0,VALID,96.7259,VALID,0,VALID,20.3659,VALID,354,VALID,0.178516,
2011-08-25, 02:17:04,VALID,916.62,VALID,0,VALID,96.6649,VALID,0,VALID,20.3464,VALID,354,VALID,0,
2011-08-25, 02:18:04,VALID,916.602,VALID,0,VALID,96.703,VALID,0,VALID,20.3464,VALID,354,VALID,0.0621094,
2011-08-25, 02:19:04,VALID,916.564,VALID,0,VALID,96.7411,VALID,0,VALID,20.3448,VALID,354,VALID,0.289063,
2011-08-25, 02:20:04,VALID,916.592,VALID,0,VALID,96.6802,VALID,0,VALID,20.3253,VALID,354,VALID,0.614062,
2011-08-25, 02:21:04,VALID,916.558,VALID,0,VALID,96.6268,VALID,0,VALID,20.3659,VALID,354,VALID,0.758594,
2011-08-25, 02:22:04,VALID,916.555,VALID,0,VALID,96.6039,VALID,0,VALID,20.3058,VALID,354,VALID,0.746484,
2011-08-25, 02:23:04,VALID,916.526,VALID,0,VALID,96.6192,VALID,0,VALID,20.3269,VALID,354,VALID,0.939844,
2011-08-25, 02:24:04,VALID,916.529,VALID,0,VALID,96.6344,VALID,0,VALID,20.2668,VALID,354,VALID,0.992969,
2011-08-25, 02:25:04,VALID,916.568,VALID,0,VALID,96.6268,VALID,0,VALID,20.2473,VALID,17,VALID,1.04531,
2011-08-25, 02:26:04,VALID,916.586,VALID,0,VALID,96.6497,VALID,0,VALID,20.2668,VALID,29,VALID,1.09844,
2011-08-25, 02:27:04,VALID,916.615,VALID,0,VALID,96.6725,VALID,0,VALID,20.2278,VALID,30,VALID,0.603516,
2011-08-25, 02:28:04,VALID,916.61,VALID,0,VALID,96.7259,VALID,0,VALID,20.2278,VALID,30,VALID,0.628516,
2011-08-25, 02:29:04,VALID,916.616,VALID,0,VALID,96.6954,VALID,0,VALID,20.2278,VALID,29,VALID,0.710547,
2011-08-25, 02:30:04,VALID,916.592,VALID,0,VALID,96.6725,VALID,0,VALID,20.2098,VALID,30,VALID,0.639453,
2011-08-25, 02:31:04,VALID,916.567,VALID,0,VALID,96.7107,VALID,0,VALID,20.1888,VALID,30,VALID,0.323438,
2011-08-25, 02:32:04,VALID,916.535,VALID,0,VALID,96.7107,VALID,0,VALID,20.2083,VALID,30,VALID,0.123047,
2011-08-25, 02:33:04,VALID,916.474,VALID,0,VALID,96.7564,VALID,0,VALID,20.2083,VALID,30,VALID,0.296094,
2011-08-25, 02:34:04,VALID,916.489,VALID,0,VALID,96.7259,VALID,0,VALID,20.2083,VALID,29,VALID,0.344531,
2011-08-25, 02:35:04,VALID,916.467,VALID,0,VALID,96.7716,VALID,0,VALID,20.2083,VALID,30,VALID,0.548437,
2011-08-25, 02:36:04,VALID,916.467,VALID,0,VALID,96.7411,VALID,0,VALID,20.2083,VALID,29,VALID,0.504687,
2011-08-25, 02:37:04,VALID,916.485,VALID,0,VALID,96.7259,VALID,0,VALID,20.2083,VALID,29,VALID,0.230469,
2011-08-25, 02:38:04,VALID,916.46,VALID,0,VALID,96.7488,VALID,0,VALID,20.2098,VALID,29,VALID,0.498437,
2011-08-25, 02:39:04,VALID,916.443,VALID,0,VALID,96.7716,VALID,0,VALID,20.1888,VALID,30,VALID,0.426172,
2011-08-25, 02:40:04,VALID,916.456,VALID,0,VALID,96.7793,VALID,0,VALID,20.2083,VALID,29,VALID,0.446875,
2011-08-25, 02:41:04,VALID,916.452,VALID,0,VALID,96.7945,VALID,0,VALID,20.2293,VALID,29,VALID,0.361719,
2011-08-25, 02:42:04,VALID,916.465,VALID,0,VALID,96.8707,VALID,0,VALID,20.2489,VALID,30,VALID,0.412109,
2011-08-25, 02:43:04,VALID,916.462,VALID,0,VALID,96.8403,VALID,0,VALID,20.2489,VALID,30,VALID,0.310937,
2011-08-25, 02:44:04,VALID,916.435,VALID,0,VALID,96.886,VALID,0,VALID,20.2684,VALID,29,VALID,0.381641,
2011-08-25, 02:45:04,VALID,916.435,VALID,0,VALID,96.9012,VALID,0,VALID,20.2668,VALID,29,VALID,0.58125,
2011-08-25, 02:46:04,VALID,916.434,VALID,0,VALID,96.9241,VALID,0,VALID,20.3074,VALID,30,VALID,0.661719,
2011-08-25, 02:47:04,VALID,916.444,VALID,0,VALID,96.9165,VALID,0,VALID,20.3074,VALID,30,VALID,0.621875,
2011-08-25, 02:48:04,VALID,916.409,VALID,0,VALID,96.9165,VALID,0,VALID,20.2863,VALID,30,VALID,0.578125,
2011-08-25, 02:49:04,VALID,916.389,VALID,0,VALID,96.9241,VALID,0,VALID,20.2863,VALID,30,VALID,0.544141,
2011-08-25, 02:50:04,VALID,916.408,VALID,0,VALID,96.9317,VALID,0,VALID,20.3058,VALID,30,VALID,0.594922,
2011-08-25, 02:51:04,VALID,916.391,VALID,0,VALID,96.947,VALID,0,VALID,20.3253,VALID,30,VALID,0.492969,
2011-08-25, 02:52:04,VALID,916.385,VALID,0,VALID,96.9165,VALID,0,VALID,20.3464,VALID,29,VALID,0.499219,
2011-08-25, 02:53:04,VALID,916.36,VALID,0,VALID,96.9394,VALID,0,VALID,20.3253,VALID,29,VALID,0.676172,
2011-08-25, 02:54:04,VALID,916.376,VALID,0,VALID,96.9317,VALID,0,VALID,20.3659,VALID,30,VALID,0.451172,
2011-08-25, 02:55:04,VALID,916.383,VALID,0,VALID,96.886,VALID,0,VALID,20.3058,VALID,30,VALID,0.776172,
2011-08-25, 02:56:04,VALID,916.378,VALID,0,VALID,96.947,VALID,0,VALID,20.3269,VALID,29,VALID,0.615234,
2011-08-25, 02:57:04,VALID,916.395,VALID,0,VALID,96.9394,VALID,0,VALID,20.3448,VALID,30,VALID,0.684766,
2011-08-25, 02:58:04,VALID,916.379,VALID,0,VALID,96.8631,VALID,0,VALID,20.3074,VALID,29,VALID,1.03359,
2011-08-25, 02:59:04,VALID,916.373,VALID,0,VALID,96.8784,VALID,0,VALID,20.2879,VALID,16,VALID,0.88125,
2011-08-25, 03:00:04,VALID,916.395,VALID,0,VALID,96.8784,VALID,0,VALID,20.2278,VALID,16,VALID,1.06211,
2011-08-25, 03:01:04,VALID,916.386,VALID,0,VALID,96.8707,VALID,0,VALID,20.2278,VALID,20,VALID,1.14375,
2011-08-25, 03:02:04,VALID,916.373,VALID,0,VALID,96.9012,VALID,0,VALID,20.2473,VALID,5,VALID,0.659375,
2011-08-25, 03:03:04,VALID,916.392,VALID,0,VALID,96.8936,VALID,0,VALID,20.2684,VALID,37,VALID,1.00352,
2011-08-25, 03:04:04,VALID,916.354,VALID,0,VALID,96.947,VALID,0,VALID,20.2668,VALID,37,VALID,0.558203,
2011-08-25, 03:05:04,VALID,916.381,VALID,0,VALID,96.9394,VALID,0,VALID,20.2879,VALID,37,VALID,0.528906,
2011-08-25, 03:06:04,VALID,916.393,VALID,0,VALID,96.9317,VALID,0,VALID,20.2473,VALID,37,VALID,0.502344,
2011-08-25, 03:07:04,VALID,916.391,VALID,0,VALID,96.9165,VALID,0,VALID,20.2684,VALID,36,VALID,0.636719,
2011-08-25, 03:08:04,VALID,916.415,VALID,0,VALID,96.9317,VALID,0,VALID,20.2684,VALID,36,VALID,0.752344,
2011-08-25, 03:09:04,VALID,916.432,VALID,0,VALID,96.9241,VALID,0,VALID,20.2684,VALID,2,VALID,1.03711,
2011-08-25, 03:10:04,VALID,916.421,VALID,0,VALID,96.9317,VALID,0,VALID,20.2668,VALID,10,VALID,0.686719,
2011-08-25, 03:11:04,VALID,916.419,VALID,0,VALID,96.9241,VALID,0,VALID,20.2278,VALID,10,VALID,0.814844,
2011-08-25, 03:12:04,VALID,916.443,VALID,0,VALID,96.9546,VALID,0,VALID,20.2489,VALID,10,VALID,0.474609,
2011-08-25, 03:13:04,VALID,916.424,VALID,0,VALID,96.9698,VALID,0,VALID,20.2668,VALID,10,VALID,0,
2011-08-25, 03:14:04,VALID,916.387,VALID,0,VALID,96.9851,VALID,0,VALID,20.2879,VALID,11,VALID,0.894141,
2011-08-25, 03:15:04,VALID,916.374,VALID,0,VALID,96.9851,VALID,0,VALID,20.2879,VALID,10,VALID,0.907031,
2011-08-25, 03:16:04,VALID,916.351,VALID,0,VALID,96.9927,VALID,0,VALID,20.2863,VALID,10,VALID,0.285937,
2011-08-25, 03:17:04,VALID,916.344,VALID,0,VALID,96.9851,VALID,0,VALID,20.2863,VALID,10,VALID,0.0546875,
2011-08-25, 03:18:04,VALID,916.346,VALID,0,VALID,96.9622,VALID,0,VALID,20.2684,VALID,10,VALID,0.0449219,
2011-08-25, 03:19:04,VALID,916.348,VALID,0,VALID,96.9622,VALID,0,VALID,20.2668,VALID,11,VALID,0.880469,
2011-08-25, 03:20:04,VALID,916.324,VALID,0,VALID,96.9698,VALID,0,VALID,20.2684,VALID,10,VALID,0.910937,
2011-08-25, 03:21:04,VALID,916.345,VALID,0,VALID,96.9775,VALID,0,VALID,20.2668,VALID,11,VALID,0.5375,
2011-08-25, 03:22:04,VALID,916.343,VALID,0,VALID,96.9698,VALID,0,VALID,20.2473,VALID,10,VALID,0.425781,
2011-08-25, 03:23:04,VALID,916.321,VALID,0,VALID,96.9927,VALID,0,VALID,20.2668,VALID,11,VALID,0.134375,
2011-08-25, 03:24:04,VALID,916.301,VALID,0,VALID,97.008,VALID,0,VALID,20.2668,VALID,11,VALID,0.250781,
2011-08-25, 03:25:04,VALID,916.303,VALID,0,VALID,96.9927,VALID,0.107441,VALID,20.2863,VALID,10,VALID,0.380469,
2011-08-25, 03:26:04,VALID,916.265,VALID,0,VALID,97.0003,VALID,0,VALID,20.2863,VALID,10,VALID,0.509766,
2011-08-25, 03:27:04,VALID,916.256,VALID,0,VALID,97.0156,VALID,0.107441,VALID,20.2668,VALID,11,VALID,0.226172,
2011-08-25, 03:28:04,VALID,916.221,VALID,0,VALID,97.008,VALID,0,VALID,20.2668,VALID,11,VALID,0.0527344,
2011-08-25, 03:29:04,VALID,916.217,VALID,0,VALID,97.008,VALID,0,VALID,20.2458,VALID,11,VALID,0.198437,
2011-08-25, 03:30:04,VALID,916.203,VALID,0,VALID,97.008,VALID,0,VALID,20.2668,VALID,11,VALID,0.220703,
2011-08-25, 03:31:04,VALID,916.196,VALID,0,VALID,97.0232,VALID,0,VALID,20.2473,VALID,10,VALID,0.341016,
2011-08-25, 03:32:04,VALID,916.186,VALID,0,VALID,97.0308,VALID,0,VALID,20.2863,VALID,11,VALID,0.739062,
2011-08-25, 03:33:04,VALID,916.177,VALID,0,VALID,97.0385,VALID,0,VALID,20.2458,VALID,10,VALID,0.431641,
2011-08-25, 03:34:04,VALID,916.195,VALID,0,VALID,97.0232,VALID,0,VALID,20.2668,VALID,10,VALID,0.357422,
2011-08-25, 03:35:04,VALID,916.167,VALID,0,VALID,97.0385,VALID,0,VALID,20.2668,VALID,11,VALID,0.0511719,
2011-08-25, 03:36:04,VALID,916.158,VALID,0,VALID,97.0308,VALID,0,VALID,20.2879,VALID,10,VALID,0.102734,
2011-08-25, 03:37:04,VALID,916.143,VALID,0,VALID,97.0385,VALID,0,VALID,20.2668,VALID,11,VALID,0.310547,
2011-08-25, 03:38:04,VALID,916.132,VALID,0,VALID,97.0461,VALID,0,VALID,20.2684,VALID,11,VALID,0.630469,
2011-08-25, 03:39:04,VALID,916.12,VALID,0,VALID,97.0385,VALID,0,VALID,20.2489,VALID,11,VALID,0.237109,
2011-08-25, 03:40:04,VALID,916.079,VALID,0,VALID,97.0385,VALID,0,VALID,20.2293,VALID,10,VALID,0.189844,
2011-08-25, 03:41:04,VALID,916.054,VALID,0,VALID,97.0385,VALID,0,VALID,20.2278,VALID,10,VALID,0.121484,
2011-08-25, 03:42:04,VALID,916.077,VALID,0,VALID,97.0461,VALID,0,VALID,20.2684,VALID,10,VALID,0.180859,
2011-08-25, 03:43:04,VALID,916.048,VALID,0,VALID,97.0613,VALID,0.107441,VALID,20.2668,VALID,10,VALID,0.119141,
2011-08-25, 03:44:04,VALID,916.016,VALID,0,VALID,97.0766,VALID,0,VALID,20.2668,VALID,10,VALID,0.0292969,
2011-08-25, 03:45:04,VALID,916.003,VALID,0,VALID,97.0461,VALID,0,VALID,20.2668,VALID,11,VALID,0.353516,
2011-08-25, 03:46:04,VALID,916.02,VALID,0,VALID,97.0385,VALID,0,VALID,20.2863,VALID,11,VALID,0.491797,